Showing default

OPS 4412 (TRANSIT 9), 801

Orbit data source: Space-Track

OPS 4412 (TRANSIT 9), 801 is a payload satellite owned by USN BuWeps (US) in LEO that was launched on Thu, 04 Jun 1964 UTC via an SCOUT X-4 launch vehicle from the Air Force Western Test Range (AFWTR). Payloads include a variety of satellites, spacecraft, and rockets equipped with specific instruments for various scientific and technological missions. These include communications satellites like Starlink; space stations such as the ISS; scientific satellites like the Hubble; Earth observation satellites from companies like Planet Labs, Umbra, and HawkEye 360; GPS; miniature CubeSats for education and research; and military/defense satellites.

Loading next visibility...
OPS 4412 (TRANSIT 9) details
Identifier
801, 1964-026A
Orbit
LEO
Last TLE update17 hours ago
Origin
Flag of USUSN BuWeps (US)
ManufacturerAPL
MissionDefense Navigation
Bus & MotorTRANSIT 5, Unknown motor
Mass54 kg wet, 54 kg dry
Launch date (UTC)
1964-06-04 (61 years ago)
Launch vehicle
SCOUT X-4
Launch site
Air Force Western Test Range (AFWTR)
Object type
Payload
Rocket body
Debris
Shape & HBROct Cyl + 4 Pan + 1 Rod, 30 m
Radar Cross Section7.568 m², Large (>1 m²)

Expand to show TLE details & history

TLE from 17 hours ago
0 OPS 4412 (TRANSIT 9)
1 00801U 64026A   24355.81635327  .00000851  00000-0  41989-3 0  9999
2 00801  90.4588 159.9263 0047026 342.2965  17.6582 14.16328474109212
Epoch: 2024-12-20T19:35Z
Definitive object data (Epoch: 2024-12-20T19:35:32.922Z)
Latitude-0.00003°
Longitude136.16269°
Altitude808.519 km
Speed7.466 km/s
True Right ascension10h 39m 42s
True Declination0° 00' 00"
Sunlit
Object was in daylight at TLE epoch
Visualization TLE readout
Latitude-14.28682°
Longitude136.3153°
Altitude810.024 km
Speed7.465 km/s
Apparent Right ascension08h 56m 06s
Apparent Declination-67° 21' 26"
Sunlit
Object is in daylight
Visualization observer readout
Local Sidereal Time11:30:43
Azimuth194.948° SSW
Elevation-21.2°
Doppler factor1
Orbital elements
Apogee altitude868.67 km
Perigee altitude800.831 km
Semi-major axis7,212.888 km
Eccentricity0.0047026
Inclination90.4588°
RAAN159.9263°
Arg. of periapsis342.2965°
True anomaly17.82258°
Mean anomaly17.6582°
Eccentric anomaly17.7403°
Mean motion3.54307 °/min
BSTAR0.00041989
Orbital period101.61 mins
Loading maneuver chart data...
Loading historical data...
Loading historical data...
Loading historical data...
Loading historical data...
Loading historical data...
Loading historical data...
Loading historical data...

OPS 4412 (TRANSIT 9) Visibility forecast

Observer location: undefined°, undefined

Span
Click to sort rows by Start time (UTC) header in descending order
Start Az.
Max El. time (UTC)
Max El. Az.
Max El.
End time (UTC)
End Az.
7 mins2024-12-21 12:40:55.352Z234.463° WSW2024-12-21 12:43:55.352Z273.123° WNW20.158°2024-12-21 12:47:55.352Z324.183° NNW
9 mins2024-12-21 23:18:55.352Z12.029° NNE2024-12-21 23:22:55.352Z92.359° ESE42.656°2024-12-21 23:27:55.352Z173.058° S
5 mins2024-12-22 01:01:55.352Z309.416° NW2024-12-22 01:03:55.352Z285.46° WNW15.21°2024-12-22 01:06:55.352Z252.869° W
7 mins2024-12-22 10:43:55.352Z129.77° SE2024-12-22 10:46:55.352Z79.487° E29.07°2024-12-22 10:50:55.352Z20.723° NNE
4 mins2024-12-22 12:24:55.352Z224.978° SW2024-12-22 12:28:55.352Z285.142° WNW24.641°2024-12-22 12:28:55.352Z285.142° WNW
|